Tracking 19854 objects as of 23-Sep-2019
HD Live streaming from Space Station
objects crossing your sky now

SL-14 DEB

Track SL-14 DEB now!
10-day predictions


NORAD ID: 19136
Int'l Code: 1978-100J
Perigee: 974.2 km
Apogee: 1,633.0 km
Inclination: 82.4 °
Period: 111.5 minutes
Semi major axis: 7674 km
RCS: 0.0158 m2 (small)
Launch date: October 26, 1978
Source: Commonwealth of Independent States (former USSR) (CIS)
Launch site: PLESETSK MISSILE AND SPACE COMPLEX (PKMTR)

Note: This is SATELLITE DEBRIS
aabbcc
Your satellite tracking list
Your tracking list is empty




NASA's NSSDC Master Catalog

Two Line Element Set (TLE):
1 19136U 78100J   19263.49146671  .00000517  00000-0  12661-2 0  9996
2 19136  82.4160  71.0468 0429235 233.5623 149.2370 12.91273111890605
Source of the keplerian elements: AFSPC